Regional Weather Roundup
Issued by NWS Cleveland, OH

Home | Current Version | Previous Version | Graphics & Text | Print | Product List | Glossary On
Versions: 1 2 3 4 5 6 7 8 9 10 11 12 13 14 15 16 17 18 19 20 21 22 23 24 25 26 27 28 29 30 31 32 33 34 35 36 37 38 39 40 41 42 43 44 45 46 47 48 49 50
000
ASUS41 KCLE 050210
RWRCLE
OHIO REGIONAL WEATHER ROUNDUP
NATIONAL WEATHER SERVICE CLEVELAND, OH
1000 PM EDT TUE AUG 04 2015

NOTE: "FAIR" INDICATES FEW OR NO CLOUDS BELOW 12,000 FEET WITH NO
SIGNIFICANT WEATHER AND/OR OBSTRUCTIONS TO VISIBILITY.

OHZ001>008-015>018-024>027-034-035-043-044-050300-
   NORTHWEST OHIO

CITY           SKY/WX    TMP DP  RH WIND       PRES   REMARKS
DEFIANCE       MOCLDY    69  59  70 CALM      30.00R
FINDLAY        MOCLDY    69  61  75 W5        29.99R
TOLEDO EXPRESS PTCLDY    66  58  75 W5        29.98R
TOLEDO EXEC    PTCLDY    70  56  61 W6        29.98R
LIMA           PTCLDY    71  60  68 SW7       30.01R
$$

OHZ009>014-019>023-028>033-038-089-050300-
   NORTHEAST OHIO

CITY           SKY/WX    TMP DP  RH WIND       PRES   REMARKS
CLE-HOPKINS    MOCLDY    71  58  63 SW3       29.98R
CLE-LAKEFRONT  PTCLDY    73  60  63 SW9       29.95R
CUY CO. ARPT   PTCLDY    70  61  73 SW7       29.97R
LORAIN-ELYRIA  MOCLDY    66  63  90 SW3       29.98R
ASHTABULA      PTCLDY    65  58  78 SW3       29.97R
AKRON-CANTON   MOCLDY    69  55  60 W3        29.99R
WOOSTER        MOCLDY    63  59  87 W5        30.00R
MANSFIELD      PTCLDY    67  58  72 SW3       30.01R
YOUNGSTOWN     MOCLDY    65  55  70 CALM      29.98R
$$

OHZ042-051>053-060>062-070>072-077>081-050300-
  SOUTHWEST OHIO

CITY           SKY/WX    TMP DP  RH WIND       PRES   REMARKS
CINC-COVINGTON CLOUDY    71  63  75 SW3       30.03R
CINC-LUNKEN    MOCLDY    70  65  84 SW3       30.03R
HAMILTON       MOCLDY    68  65  90 CALM      30.02R
DAYTON         MOCLDY    70  60  70 NW3       30.03R
WRIGHT-PAT AFB MOCLDY    70  62  74 CALM      30.01R
DAYTON GENERAL PTCLDY    73  59  61 CALM      30.02R
WILMINGTON     PTCLDY    73  55  53 NW6       30.02R
$$

OHZ036-037-039>041-045>050-054>059-063>069-073>076-082>088-050300-
  CENTRAL AND SOUTHEAST OHIO

CITY           SKY/WX    TMP DP  RH WIND       PRES   REMARKS
COLUMBUS       CLOUDY    73  56  54 W5        30.00R
OSU AIRPORT    PTCLDY    70  58  65 W6        30.01R
BOLTON FIELD   PTCLDY    67  62  84 W3        30.01R
RICKENBACK AFB PTCLDY    71  59  66 W3        30.00R
NEWARK         PTCLDY    67  62  84 NW3       30.00R
MARION         PTCLDY    71  58  63 W6        30.01R
LANCASTER      PTCLDY    64  61  90 CALM      30.01R
ZANESVILLE     PTCLDY    70  58  65 CALM      29.99R
NEW PHILLY     MOCLDY    65  60  84 CALM      29.99R
$$



USA.gov is the U.S. government's official web portal to all federal, state and local government web resources and services.